Regional Weather Roundup
Issued by NWS

Home | Current Version | Previous Version | Graphics & Text | Print | Product List | Glossary On
Versions: 1 2 3 4 5 6 7 8 9 10 11 12 13 14 15 16 17 18 19 20 21 22 23 24 25 26 27 28 29 30 31 32 33 34 35 36 37 38 39 40 41 42 43 44 45 46 47 48 49 50
000
ASUS43 KIND 302109
RWRIN

WEATHER ROUNDUP FOR INDIANA
NATIONAL WEATHER SERVICE INDIANAPOLIS IN
500 PM EDT TUE AUG 30 2016

NOTE: "FAIR" INDICATES FEW OR NO CLOUDS BELOW 12,000 FEET WITH NO
SIGNIFICANT WEATHER AND/OR OBSTRUCTIONS TO VISIBILITY.

* - STATION DOES NOT REPORT WEATHER SUCH AS PRECIPITATION OR FOG.

+ - STATION NOT QUALITY CONTROLLED BY THE NATIONAL WEATHER SERVICE.
    USE DATA WITH CAUTION...ESPECIALLY DEWPOINT AND RELATIVE
    HUMIDITY OBSERVATIONS.

INZ001>003-010>013-019-020-302200-
NORTHWEST INDIANA

CITY           SKY/WX    TMP DP  RH WIND       PRES   REMARKS
GARY /AIRPORT/ PTSUNNY   86  70  58 W9        30.07F
KNOX *+        CLOUDY    81  50  34 W7        30.08S
LA PORTE +     MOSUNNY   84  74  71 W5        30.08F
MICHIGAN CITY+ MOSUNNY   81  77  89 MISG      30.08S
MONTICELLO +   PTSUNNY   78  68  70 NW6       30.05F
RENSSELAER +   PTSUNNY   82  70  65 NW3       30.08F
VALPARAISO     PTSUNNY   82  71  69 S6        30.08F

$$

LMZ046-743>745-302200-
SOUTHERN LAKE MICHIGAN

STATION/POSITION TIME  TEMP    WIND        PRES    WAVE
                       AIR SEA DIR/SP/G            HT
                 (UTC) (F)     (DEG/KT/KT) (MB)    (FT)
BURNS HARBOR     2008   77      10/  4/  6 1018.6F
MICHIGAN CITY    2000   80     260/  5/  5   N/A
5NW MICH CITY    2100   77 73  350/  2/  4   N/A     0

$$

INZ004-005-014>016-021>024-302200-
NORTH CENTRAL INDIANA

CITY           SKY/WX    TMP DP  RH WIND       PRES   REMARKS
ELKHART        PTSUNNY  N/A N/A N/A SW8       30.06
GOSHEN         CLOUDY    83  71  67 W6        30.07F
LOGANSPORT +   MOSUNNY   82  72  69 W6        30.05F
PERU/GRISSOM   MOSUNNY   87  73  64 W8        30.04F
ROCHESTER +    PTSUNNY   84  75  74 N7        30.06F
SOUTH BEND     CLOUDY    81  73  76 W8        30.07F
WARSAW +       CLOUDY    82  77  83 W6        30.07S

$$

INZ006>009-017-018-025>027-302200-
NORTHEAST INDIANA

CITY           SKY/WX    TMP DP  RH WIND       PRES   REMARKS
ANGOLA *+      MOSUNNY   82  73  74 CALM      30.08F
AUBURN +       LGT RAIN  77  70  78 NW8       30.09R
FORT WAYNE     TSTM      74  69  85 N18G30    30.06F
HUNTINGTON +   CLOUDY    74  71  88 N18       30.08R

$$

INZ028-029-035-036-043>045-051>053-302200-
WEST CENTRAL INDIANA

CITY           SKY/WX    TMP DP  RH WIND       PRES   REMARKS
CRAWFORDSVL +  CLOUDY    82  74  78 CALM      30.06F
GREENCASTLE +  MOSUNNY   88  73  62 CALM      30.06F HX  96
LAFAYETTE      CLOUDY    85  74  69 NW8       30.04F
TERRE HAUTE    MOSUNNY   90  69  50 SW6       30.05F

$$

INZ030>032-037>040-046>048-054>057-064-065-302200-
CENTRAL INDIANA

CITY           SKY/WX    TMP DP  RH WIND       PRES   REMARKS
COLUMBUS       MOSUNNY   88  70  55 CALM      30.06F
INDIANAPOLIS   PTSUNNY   87  69  54 S8        30.05F
-EAGLE CREEK   MOSUNNY   88  69  53 VRB3      30.04F
KOKOMO *+      CLOUDY    79  66  65 N5        30.05F
MARION +       MOSUNNY   85  70  60 SW6       30.05F
MT COMFORT *+  MOSUNNY   86  72  62 S5        30.07F
SHELBYVILLE    MOSUNNY   88  69  53 S6        30.05F
ZIONSVILLE +   CLOUDY    85  71  62 CALM      30.06F

$$

INZ033-034-041-042-049-050-058-059-302200-
EAST CENTRAL INDIANA

CITY           SKY/WX    TMP DP  RH WIND       PRES   REMARKS
MUNCIE         PTSUNNY   86  70  58 SW7       30.06F

$$

INZ060-061-067>069-081>083-085>088-302200-
SOUTHWEST INDIANA

CITY           SKY/WX    TMP DP  RH WIND       PRES   REMARKS
EVANSVILLE     MOSUNNY   92  69  47 E3        30.04F HX  97
HUNTINGBURG *+ SUNNY     90  68  48 CALM      30.05F
WASHINGTON +   MOSUNNY   91  73  55 MISG      30.04F HX  98

$$

INZ062-063-066-070>080-084-089>092-302200-
SOUTH CENTRAL AND SOUTHEAST INDIANA

CITY           SKY/WX    TMP DP  RH WIND       PRES   REMARKS
BLOOMINGTON    MOSUNNY   88  70  55 SW3       30.06F
MADISON *+     SUNNY     90  63  40 CALM      30.08F

$$





USA.gov is the U.S. government's official web portal to all federal, state and local government web resources and services.